Weather History for Aurora, NE

Change the Weather History Date:

Wednesday, October 9, 2013

  Actual Average Record
Temperature  
Mean Temperature 66 °F -  
Max Temperature 80 °F 67 °F 88 °F (1980)
Min Temperature 53 °F 41 °F 26 °F (2000)
Cooling Degree Days 2    
Growing Degree Days 16 (Base 50)    
Moisture  
Dew Point 49 °F    
Average Humidity 57    
Maximum Humidity 83    
Minimum Humidity 29    
Precipitation  
Precipitation 0.00 in - - ()
Sea Level Pressure  
Sea Level Pressure 29.90 in    
Wind  
Wind Speed 14 mph (SSE)    
Max Wind Speed 22 mph    
Max Gust Speed 32 mph    
Visibility 10 miles    
Events      
Averages and records for this station are not official NWS values.
T = Trace of Precipitation, MM = Missing Value Source: NWS Daily Summary

Daily Weather History Graph

Daily Weather History Graph

Search for Another Location

Airport:

Trip Planner

Search our weather history database for the weather conditions in past years. The results will help you decide how hot, cold, wet, or windy it might be!

Date:

Astronomy

Oct. 09, 2013 Rise Set
Actual Time 7:37 AM CDT 7:00 PM CDT
Civil Twilight 7:09 AM CDT 7:27 PM CDT
Nautical Twilight 6:37 AM CDT 7:59 PM CDT
Astronomical Twilight 6:06 AM CDT 8:31 PM CDT
Moon 12:35 PM CDT (10/9) 10:34 PM CDT (10/9)
Length of Visible Light 12h 18m
Length of Day
11h 23m
Waxing Crescent, 25% of the Moon is Illuminated
Oct 9
Waxing Crescent
Oct 11
First Quarter
Oct 18
Full
Oct 26
Last Quarter
Nov 3
New

Hourly Weather History & Observations

Time (CDT) Temp. Dew Point Humidity Pressure Visibility Wind Dir Wind Speed Gust Speed Precip Events Conditions
12:15 AM 61.5 °F 46.2 °F 57% 29.89 in 10.0 mi SSE 15.0 mph 19.6 mph N/A   Clear
12:35 AM 61.0 °F 46.6 °F 59% 29.89 in 10.0 mi South 15.0 mph 20.7 mph N/A   Clear
12:55 AM 60.6 °F 46.8 °F 60% 29.89 in 10.0 mi SSE 12.7 mph 23.0 mph N/A   Clear
1:15 AM 60.1 °F 47.3 °F 63% 29.89 in 10.0 mi South 15.0 mph 21.9 mph N/A   Clear
1:35 AM 59.9 °F 47.7 °F 64% 29.89 in 10.0 mi South 15.0 mph - N/A   Clear
1:55 AM 59.2 °F 48.2 °F 67% 29.90 in 10.0 mi South 16.1 mph 20.7 mph N/A   Clear
2:15 AM 59.0 °F 48.4 °F 68% 29.90 in 10.0 mi South 15.0 mph - N/A   Clear
2:35 AM 58.5 °F 49.1 °F 71% 29.90 in 10.0 mi SSE 12.7 mph - N/A   Clear
2:55 AM 58.1 °F 49.5 °F 73% 29.90 in 10.0 mi SSE 13.8 mph 18.4 mph N/A   Clear
3:15 AM 57.6 °F 49.3 °F 74% 29.89 in 10.0 mi SSE 12.7 mph 19.6 mph N/A   Clear
3:35 AM 57.6 °F 49.5 °F 74% 29.89 in 10.0 mi SSE 11.5 mph 17.3 mph N/A   Clear
3:55 AM 57.6 °F 49.3 °F 74% 29.89 in 10.0 mi SSE 12.7 mph 19.6 mph N/A   Clear
4:15 AM 57.2 °F 49.1 °F 74% 29.89 in 10.0 mi SSE 10.4 mph 18.4 mph N/A   Clear
4:35 AM 56.7 °F 49.1 °F 76% 29.89 in 10.0 mi SSE 11.5 mph 18.4 mph N/A   Clear
4:55 AM 56.3 °F 48.7 °F 76% 29.89 in 10.0 mi SSE 11.5 mph - N/A   Clear
5:15 AM 56.1 °F 48.7 °F 76% 29.89 in 10.0 mi SSE 11.5 mph - N/A   Clear
5:35 AM 55.8 °F 48.6 °F 77% 29.89 in 10.0 mi SSE 11.5 mph - N/A   Clear
5:55 AM 55.4 °F 48.6 °F 78% 29.89 in 10.0 mi SSE 12.7 mph - N/A   Clear
6:15 AM 55.4 °F 48.6 °F 78% 29.89 in 10.0 mi SSE 15.0 mph 18.4 mph N/A   Clear
6:35 AM 55.0 °F 48.6 °F 79% 29.89 in 10.0 mi SSE 12.7 mph - N/A   Clear
6:55 AM 54.7 °F 48.7 °F 80% 29.89 in 10.0 mi SSE 15.0 mph - N/A   Clear
7:15 AM 54.3 °F 48.6 °F 81% 29.89 in 10.0 mi SSE 12.7 mph 18.4 mph N/A   Clear
7:35 AM 54.0 °F 48.6 °F 82% 29.89 in 10.0 mi SSE 9.2 mph 16.1 mph N/A   Clear
7:55 AM 53.6 °F 48.6 °F 83% 29.89 in 10.0 mi SSE 11.5 mph - N/A   Clear
8:15 AM 54.3 °F 48.7 °F 81% 29.90 in 10.0 mi SSE 11.5 mph - N/A   Clear
8:35 AM 55.4 °F 49.1 °F 79% 29.90 in 10.0 mi SSE 13.8 mph 17.3 mph N/A   Clear
8:55 AM 56.5 °F 49.1 °F 76% 29.91 in 10.0 mi SSE 12.7 mph 20.7 mph N/A   Clear
9:15 AM 58.1 °F 49.1 °F 72% 29.92 in 10.0 mi South 16.1 mph - N/A   Clear
9:35 AM 59.4 °F 49.3 °F 69% 29.92 in 10.0 mi South 12.7 mph - N/A   Clear
9:55 AM 60.6 °F 49.3 °F 66% 29.92 in 10.0 mi South 12.7 mph 21.9 mph N/A   Clear
10:15 AM 62.6 °F 49.1 °F 61% 29.93 in 10.0 mi South 15.0 mph 20.7 mph N/A   Clear
10:35 AM 63.7 °F 48.6 °F 58% 29.93 in 10.0 mi South 15.0 mph 23.0 mph N/A   Clear
10:55 AM 65.5 °F 48.9 °F 55% 29.93 in 10.0 mi South 17.3 mph - N/A   Clear
11:15 AM 67.1 °F 48.7 °F 52% 29.93 in 10.0 mi South 13.8 mph 20.7 mph N/A   Clear
11:35 AM 68.9 °F 48.7 °F 49% 29.93 in 10.0 mi South 16.1 mph - N/A   Clear
11:55 AM 69.8 °F 49.1 °F 48% 29.93 in 10.0 mi SSE 15.0 mph 20.7 mph N/A   Clear
12:15 PM 70.5 °F 48.9 °F 46% 29.93 in 10.0 mi South 11.5 mph 23.0 mph N/A   Clear
12:35 PM 71.8 °F 48.9 °F 44% 29.92 in 10.0 mi South 16.1 mph 20.7 mph N/A   Clear
12:55 PM 73.4 °F 48.6 °F 41% 29.92 in 10.0 mi South 13.8 mph - N/A   Clear
1:15 PM 74.7 °F 48.2 °F 39% 29.91 in 10.0 mi South 17.3 mph 23.0 mph N/A   Clear
1:35 PM 76.3 °F 48.9 °F 38% 29.90 in 10.0 mi SSE 16.1 mph 24.2 mph N/A   Clear
1:55 PM 77.2 °F 48.0 °F 36% 29.89 in 10.0 mi SSE 17.3 mph 24.2 mph N/A   Clear
2:15 PM 77.4 °F 47.3 °F 35% 29.89 in 10.0 mi SSE 17.3 mph 25.3 mph N/A   Clear
2:35 PM 78.4 °F 47.8 °F 34% 29.89 in 10.0 mi SSE 18.4 mph 25.3 mph N/A   Clear
2:55 PM 79.0 °F 47.3 °F 33% 29.88 in 10.0 mi SSE 19.6 mph 27.6 mph N/A   Clear
3:15 PM 79.9 °F 47.5 °F 32% 29.88 in 10.0 mi SSE 19.6 mph 26.5 mph N/A   Clear
3:55 PM 80.6 °F 47.3 °F 31% 29.87 in 10.0 mi SSE 19.6 mph 25.3 mph N/A   Clear
4:15 PM 80.4 °F 47.3 °F 31% 29.86 in 10.0 mi SSE 20.7 mph 28.8 mph N/A   Clear
4:35 PM 80.6 °F 46.2 °F 30% 29.86 in 10.0 mi SSE 21.9 mph 28.8 mph N/A   Clear
4:55 PM 80.6 °F 45.1 °F 29% 29.86 in 10.0 mi SSE 17.3 mph 27.6 mph N/A   Clear
5:15 PM 79.9 °F 45.5 °F 30% 29.86 in 10.0 mi SSE 21.9 mph 32.2 mph N/A   Clear
5:35 PM 79.2 °F 45.9 °F 31% 29.86 in 10.0 mi South 19.6 mph 26.5 mph N/A   Clear
5:43 PM 78.8 °F 46.4 °F 32% 29.86 in 10.0 mi SSE 16.1 mph 26.5 mph N/A   Clear
5:55 PM 78.6 °F 45.7 °F 31% 29.87 in 10.0 mi South 17.3 mph 23.0 mph N/A   Clear
6:15 PM 77.9 °F 45.5 °F 32% 29.87 in 10.0 mi South 12.7 mph 21.9 mph N/A   Clear
6:55 PM 73.8 °F 47.1 °F 39% 29.88 in 10.0 mi SSE 11.5 mph - N/A   Clear
7:15 PM 72.5 °F 47.5 °F 41% 29.89 in 10.0 mi SSE 10.4 mph - N/A   Clear
7:35 PM 70.5 °F 47.8 °F 44% 29.89 in 10.0 mi SE 8.1 mph - N/A   Clear
7:55 PM 69.1 °F 48.6 °F 48% 29.90 in 10.0 mi SSE 8.1 mph - N/A   Clear
8:15 PM 68.0 °F 49.1 °F 51% 29.90 in 10.0 mi SSE 9.2 mph - N/A   Clear
8:35 PM 67.1 °F 49.3 °F 53% 29.91 in 10.0 mi SE 9.2 mph - N/A   Clear
8:55 PM 66.2 °F 50.0 °F 56% 29.91 in 10.0 mi SSE 9.2 mph - N/A   Clear
9:15 PM 65.1 °F 50.4 °F 59% 29.92 in 10.0 mi SSE 9.2 mph - N/A   Clear
9:35 PM 65.3 °F 50.5 °F 59% 29.92 in 10.0 mi SSE 11.5 mph - N/A   Clear
9:55 PM 64.8 °F 50.9 °F 61% 29.93 in 10.0 mi SSE 9.2 mph - N/A   Clear
10:15 PM 64.2 °F 50.9 °F 62% 29.93 in 10.0 mi SSE 9.2 mph - N/A   Clear
10:35 PM 63.3 °F 50.9 °F 64% 29.94 in 10.0 mi SSE 9.2 mph - N/A   Clear
10:55 PM 62.6 °F 50.9 °F 66% 29.94 in 10.0 mi SSE 9.2 mph - N/A   Clear
11:15 PM 62.2 °F 51.8 °F 69% 29.94 in 10.0 mi SSE 9.2 mph - N/A   Clear
11:55 PM 63.0 °F 52.9 °F 70% 29.95 in 10.0 mi SSE 12.7 mph - N/A   Clear